Wind_Speed
54 52 51 50 48 46 45 43 41 40 39 38 36 35 34 33 32 31 30 29 28 28 28 28 28 28 28 28 29 30 31 32 33 34 34 35 35 35 35 36 37 38 39
57 56 54 53 51 50 47 46 44 42 41 40 39 37 36 35 34 33 32 31 30 30 29 29 29 29 29 30 30 31 32 33 34 35 35 35 36 36 36 37 38 39 41
59 57 57 55 53 52 51 49 47 45 44 43 41 39 38 37 35 34 33 32 32 31 31 30 30 30 31 31 31 32 33 34 34 35 35 36 37 37 37 38 40 41 43
60 60 59 58 56 55 54 52 50 47 46 45 43 42 40 39 37 36 35 34 33 32 32 31 32 32 32 32 32 33 34 35 35 35 36 37 37 38 38 40 41 43 44
62 61 61 60 59 58 56 55 53 50 48 46 45 44 43 41 39 38 37 36 35 34 33 33 33 32 32 33 33 34 35 35 35 36 37 37 38 39 40 41 43 44 45
65 63 63 63 62 60 59 57 55 53 51 49 47 46 45 43 41 40 39 38 36 36 35 34 33 33 33 34 34 35 35 35 36 37 37 38 38 40 41 42 44 45 45
66 65 64 64 64 63 61 60 58 56 53 51 50 48 47 44 43 42 41 39 38 37 36 35 34 34 34 34 35 35 35 36 37 37 38 39 39 40 42 43 44 45 46
67 66 65 66 65 64 63 61 61 58 55 54 51 50 49 46 45 43 41 40 39 38 37 36 35 35 35 35 35 36 36 37 38 38 39 39 40 41 42 44 44 45 47
65 66 66 65 65 64 64 63 62 61 57 56 53 52 51 49 46 44 42 40 40 39 38 37 36 36 36 36 36 36 37 38 38 39 39 39 40 41 43 44 45 46 47
63 64 67 66 65 64 65 65 63 62 59 57 55 53 52 50 47 45 43 42 41 41 40 38 37 36 36 36 36 37 37 37 38 39 39 39 40 42 43 44 45 47 47
61 63 65 65 64 64 65 66 64 63 61 58 56 55 53 51 49 47 45 43 42 41 40 39 38 37 36 36 37 37 37 38 38 39 39 40 40 41 43 44 46 47 47
60 61 63 65 64 63 65 66 65 62 60 59 57 56 54 52 50 47 45 44 42 41 40 40 38 37 36 36 36 36 37 38 38 39 40 40 41 42 43 45 46 47 47
61 61 61 62 62 61 62 64 63 61 61 59 58 56 54 52 51 47 46 45 43 41 40 39 38 36 35 35 35 36 37 37 38 39 40 40 41 42 43 45 46 47 48
59 60 60 59 61 61 59 61 61 60 61 59 57 56 54 52 51 47 46 45 44 42 40 39 38 35 34 35 35 36 37 37 38 39 39 40 41 42 43 45 46 48 49
57 58 59 56 59 58 57 59 60 59 60 58 56 55 53 51 49 47 45 44 42 40 39 38 37 35 35 35 36 37 37 37 37 38 39 40 41 42 44 45 47 49 50
55 57 57 57 58 59 57 58 57 58 60 58 55 53 52 50 48 46 44 43 42 40 38 37 37 35 35 35 36 37 37 37 38 38 39 40 41 42 45 46 48 49 50
52 55 55 56 56 55 54 57 57 57 58 55 52 52 51 50 47 46 44 43 41 40 38 37 36 36 36 36 35 35 36 37 38 38 38 39 41 43 45 46 48 49 51
49 52 53 55 55 53 52 54 54 54 55 52 51 51 50 49 46 45 44 44 42 39 38 37 37 36 36 35 34 35 36 37 37 37 38 40 42 43 45 46 48 50 51
44 48 51 53 51 49 50 50 49 51 52 51 50 49 50 48 45 44 43 42 41 39 38 37 36 36 35 34 34 34 35 36 36 37 39 40 42 43 45 47 49 50 51
41 44 47 48 48 47 46 46 46 48 49 50 49 48 48 47 45 43 42 41 39 38 38 37 35 35 34 34 34 33 34 35 36 37 39 40 42 43 45 48 49 50 51
40 41 42 44 45 44 43 45 45 46 47 48 47 46 44 43 44 43 41 39 37 36 36 36 35 34 33 33 33 32 33 34 35 37 39 41 42 44 46 48 49 50 50
37 40 41 41 42 44 45 45 44 43 43 44 45 44 43 42 41 40 38 37 36 35 35 33 33 32 32 32 32 32 33 34 36 37 39 40 42 44 46 47 48 49 50
36 38 40 40 40 42 44 44 42 41 41 41 42 42 41 41 39 38 37 35 34 33 32 31 31 31 30 31 31 32 33 34 36 37 38 40 42 43 45 46 47 48 49
37 39 40 40 40 41 43 44 41 42 41 41 39 38 39 40 38 37 36 34 33 32 32 31 30 30 30 30 31 32 33 35 36 37 38 39 41 43 45 46 47 48 49
36 37 39 39 39 39 41 41 41 42 42 41 38 37 39 39 37 35 34 33 32 32 31 31 30 30 30 31 31 32 33 34 35 36 38 39 41 43 45 46 47 48 48
36 36 38 38 38 38 38 39 41 42 42 41 39 38 38 36 36 35 34 33 31 30 30 30 29 29 30 31 31 32 33 33 34 36 37 40 42 43 45 46 47 47 47
Wind_Direction
246 246 247 247 247 247 248 249 250 250 251 252 253 253 255 257 258 260 262 265 268 271 273 277 281 285 289 292 295 297 298 301 304 306 307 308 308 309 309 310 310 310 311
245 245 245 246 246 246 247 248 248 249 250 251 252 253 254 256 258 259 261 264 266 270 272 275 279 283 287 290 293 295 298 301 303 304 305 306 307 307 308 309 310 310 311
243 243 244 244 245 245 245 246 247 248 248 250 251 252 253 254 257 258 260 262 265 268 272 275 278 282 286 288 291 294 297 300 302 303 304 305 306 307 307 308 309 310 310
242 242 243 243 243 243 244 244 245 246 247 248 249 250 251 253 255 257 259 262 264 267 271 274 277 281 284 287 290 293 296 299 301 302 303 304 306 306 307 308 309 310 310
241 241 241 241 241 242 243 243 243 244 245 247 248 249 250 252 254 255 258 261 263 267 270 273 277 280 283 286 289 292 295 298 300 301 302 304 305 306 306 308 309 310 310
241 240 239 240 239 240 240 241 241 242 242 245 247 248 249 250 252 254 257 260 262 266 268 272 275 279 282 285 288 291 294 296 298 301 302 303 304 305 306 307 309 310 310
240 238 238 238 237 237 238 239 240 240 240 242 245 246 248 249 251 253 256 259 262 265 267 270 274 278 281 284 287 290 292 294 297 300 301 303 304 305 306 308 309 310 311
238 237 237 237 236 235 236 237 239 238 238 240 243 245 246 247 249 252 255 258 261 263 265 268 272 276 280 283 286 289 291 293 296 298 300 302 303 305 306 308 309 310 311
237 235 234 235 235 235 235 236 237 237 237 239 240 243 246 247 248 251 254 257 261 263 264 266 270 275 279 282 285 289 291 293 296 298 300 301 303 305 307 308 310 311 311
235 234 233 234 234 235 234 234 235 236 236 237 239 242 244 247 248 250 252 256 260 262 264 265 268 273 277 280 283 287 290 294 296 298 299 301 303 305 307 308 310 311 311
235 234 234 234 235 236 235 233 234 234 234 236 238 240 242 244 247 249 251 255 258 261 263 264 267 271 275 279 282 286 290 293 295 298 299 301 303 305 306 309 310 311 311
234 233 234 234 234 235 234 233 233 233 234 236 237 238 241 243 246 248 250 253 257 260 262 263 266 269 274 278 282 285 290 292 294 297 299 300 303 305 307 310 311 311 312
234 233 233 233 233 234 233 233 232 232 233 234 235 236 238 241 244 246 249 252 256 258 260 262 266 269 272 277 281 285 290 292 294 296 299 301 303 306 308 310 311 312 312
234 233 233 233 233 232 233 233 232 232 232 232 234 234 236 239 242 244 246 250 254 256 259 261 264 268 271 275 280 284 288 291 293 296 299 302 304 306 308 310 311 312 313
234 233 232 232 232 231 232 231 231 230 231 231 232 232 234 236 240 241 244 248 251 253 258 261 263 267 270 274 279 283 286 289 293 297 300 302 304 306 308 310 312 312 314
234 233 231 229 231 230 231 231 229 228 229 229 229 229 231 234 237 239 241 245 249 252 256 259 261 266 269 274 278 281 285 289 294 297 300 302 304 306 308 310 312 313 314
234 232 230 228 229 230 231 230 229 227 226 226 227 228 229 231 235 237 240 244 248 251 254 257 260 265 269 274 277 280 285 290 294 297 300 302 304 306 309 311 313 314 315
233 230 228 228 227 228 229 228 225 224 224 225 226 226 228 230 233 236 239 243 246 251 254 257 260 264 269 273 276 280 285 290 293 298 301 303 305 308 310 312 313 315 316
230 227 224 223 223 224 225 224 223 223 222 224 224 226 227 229 231 235 239 242 246 249 253 257 259 264 268 271 275 279 285 289 294 298 301 304 306 309 311 313 314 316 317
228 224 221 221 221 223 224 223 221 221 220 222 223 225 226 227 230 233 237 240 244 248 252 255 258 263 267 270 273 280 285 290 294 298 302 305 307 310 312 314 315 316 317
225 221 221 221 223 225 223 220 219 220 221 221 223 223 224 228 231 232 235 239 242 247 251 254 257 261 266 269 274 281 286 290 295 299 302 305 308 311 313 315 316 317 317
226 222 220 220 222 223 221 220 219 220 219 219 222 221 223 227 231 232 234 237 241 247 250 252 256 260 264 268 274 280 286 290 295 299 302 306 309 312 314 315 317 317 319
226 222 222 221 220 219 218 217 222 220 218 218 219 220 222 225 229 230 232 237 240 242 246 251 255 259 264 269 275 280 286 292 296 299 303 307 310 312 314 316 317 318 319
223 220 220 221 221 221 217 216 217 219 219 221 222 222 223 224 226 227 231 235 239 242 246 249 253 259 266 270 275 281 288 293 297 301 305 308 311 313 314 316 317 319 320
218 216 218 218 218 216 215 215 215 216 217 218 218 222 223 224 223 225 230 235 239 243 246 249 255 260 265 271 276 282 289 294 298 302 306 309 311 313 315 316 318 319 320
215 215 214 214 213 212 213 213 214 215 215 215 216 219 222 224 225 225 229 234 239 244 247 251 257 262 268 273 278 284 289 294 299 302 306 308 310 313 316 317 318 319 321
Height
5766 5770 5774 5778 5782 5786 5790 5793 5796 5799 5802 5805 5808 5810 5812 5814 5815 5817 5818 5818 5819 5819 5820 5820 5819 5819 5818 5817 5815 5814 5812 5809 5807 5804 5801 5798 5795 5792 5788 5784 5780 5776 5772
5754 5758 5763 5767 5772 5776 5780 5784 5787 5791 5794 5797 5800 5803 5805 5807 5809 5810 5811 5812 5813 5814 5814 5814 5814 5813 5812 5811 5810 5808 5806 5804 5801 5798 5795 5792 5789 5785 5782 5778 5774 5769 5765
5740 5745 5750 5756 5760 5765 5769 5773 5778 5781 5785 5788 5791 5795 5797 5799 5801 5803 5805 5806 5807 5807 5808 5808 5808 5807 5806 5805 5804 5802 5800 5798 5795 5792 5789 5786 5783 5779 5775 5771 5767 5762 5758
5725 5731 5737 5743 5748 5753 5758 5762 5767 5772 5776 5779 5782 5786 5788 5791 5793 5795 5797 5799 5800 5801 5801 5802 5801 5801 5800 5799 5798 5796 5794 5792 5789 5786 5783 5779 5776 5772 5768 5764 5760 5755 5750
5709 5716 5722 5729 5735 5740 5745 5751 5756 5761 5765 5769 5773 5776 5779 5782 5785 5787 5789 5791 5793 5794 5794 5795 5795 5794 5794 5793 5791 5789 5787 5785 5782 5779 5776 5773 5769 5765 5761 5757 5752 5747 5742
5692 5699 5706 5713 5719 5726 5732 5738 5744 5749 5754 5759 5762 5766 5770 5773 5776 5779 5781 5783 5785 5786 5787 5788 5788 5788 5787 5786 5785 5783 5781 5778 5776 5773 5769 5766 5762 5758 5754 5749 5744 5739 5734
5674 5682 5690 5697 5703 5710 5717 5724 5731 5736 5742 5747 5751 5755 5759 5763 5767 5770 5773 5775 5777 5778 5779 5780 5780 5780 5780 5779 5777 5776 5774 5771 5768 5765 5762 5758 5754 5750 5746 5741 5736 5731 5725
5656 5664 5672 5681 5688 5694 5702 5710 5717 5723 5730 5736 5741 5745 5748 5752 5756 5761 5764 5767 5768 5770 5771 5772 5773 5773 5772 5771 5770 5769 5766 5764 5761 5758 5754 5751 5747 5742 5738 5733 5728 5722 5717
5639 5647 5655 5663 5672 5679 5687 5696 5703 5710 5718 5724 5729 5734 5738 5742 5747 5752 5755 5758 5760 5762 5763 5764 5765 5765 5765 5764 5763 5761 5759 5756 5754 5750 5747 5743 5739 5735 5730 5725 5719 5714 5708
5622 5630 5639 5647 5655 5663 5672 5680 5688 5697 5704 5710 5716 5722 5728 5733 5737 5742 5746 5749 5751 5753 5754 5756 5756 5757 5756 5756 5755 5753 5751 5749 5746 5743 5739 5735 5731 5727 5722 5717 5711 5705 5699
5605 5614 5622 5630 5639 5647 5655 5663 5673 5681 5689 5697 5704 5710 5716 5721 5726 5731 5736 5739 5742 5744 5746 5747 5748 5748 5748 5748 5747 5745 5743 5741 5738 5735 5731 5727 5723 5718 5714 5708 5703 5696 5690
5591 5599 5607 5615 5624 5632 5640 5649 5658 5667 5676 5684 5691 5698 5704 5710 5716 5721 5726 5729 5732 5735 5737 5738 5739 5740 5740 5740 5739 5737 5735 5733 5730 5727 5723 5719 5715 5710 5705 5700 5694 5688 5681
5576 5585 5592 5600 5609 5618 5626 5634 5643 5652 5662 5670 5678 5685 5692 5699 5705 5710 5715 5719 5722 5725 5727 5729 5730 5731 5731 5731 5731 5729 5727 5725 5722 5719 5715 5711 5707 5702 5697 5691 5685 5679 5672
5563 5571 5579 5587 5595 5604 5612 5620 5629 5639 5648 5656 5664 5672 5679 5687 5693 5699 5705 5709 5712 5716 5718 5720 5722 5723 5723 5723 5722 5721 5719 5717 5714 5711 5707 5703 5699 5694 5688 5683 5676 5670 5663
5549 5557 5565 5573 5582 5590 5599 5607 5615 5625 5634 5643 5651 5660 5667 5676 5682 5689 5695 5699 5703 5706 5709 5712 5713 5714 5714 5714 5714 5713 5711 5709 5706 5703 5699 5695 5690 5685 5680 5674 5667 5660 5653
5535 5543 5551 5560 5569 5578 5586 5594 5603 5612 5622 5631 5639 5647 5656 5664 5672 5678 5684 5689 5693 5697 5700 5703 5705 5706 5706 5706 5706 5704 5703 5701 5698 5695 5691 5687 5682 5677 5671 5665 5658 5651 5644
5523 5530 5539 5548 5556 5566 5573 5582 5591 5600 5610 5619 5627 5636 5645 5653 5661 5668 5674 5679 5684 5688 5691 5694 5696 5697 5697 5698 5697 5696 5695 5693 5690 5687 5683 5678 5674 5668 5662 5656 5649 5642 5634
5513 5520 5528 5537 5546 5555 5563 5571 5580 5589 5599 5609 5617 5626 5634 5643 5651 5658 5664 5670 5675 5679 5682 5685 5687 5688 5688 5689 5689 5688 5687 5684 5682 5678 5674 5670 5665 5659 5653 5647 5640 5633 5625
5504 5511 5519 5528 5537 5546 5554 5562 5570 5580 5590 5599 5608 5617 5625 5634 5642 5649 5655 5661 5666 5670 5673 5676 5678 5679 5680 5681 5681 5680 5678 5676 5673 5670 5666 5661 5656 5651 5645 5638 5631 5623 5615
5496 5504 5512 5522 5529 5537 5545 5554 5563 5572 5581 5590 5599 5608 5617 5625 5633 5640 5646 5651 5656 5661 5665 5668 5670 5671 5672 5672 5672 5672 5670 5668 5665 5662 5657 5653 5648 5642 5636 5629 5622 5614 5605
5490 5498 5506 5514 5523 5530 5538 5546 5556 5564 5574 5582 5591 5599 5608 5617 5624 5631 5638 5643 5648 5652 5656 5659 5661 5663 5664 5664 5665 5664 5662 5660 5657 5654 5649 5644 5639 5633 5626 5619 5612 5604 5596
5485 5493 5501 5509 5517 5524 5533 5540 5549 5557 5566 5575 5584 5592 5600 5609 5616 5623 5629 5634 5640 5644 5648 5651 5653 5655 5656 5657 5657 5656 5654 5652 5650 5647 5641 5636 5630 5624 5617 5610 5602 5595 5587
5480 5487 5495 5503 5511 5519 5526 5535 5542 5551 5560 5569 5577 5586 5594 5601 5608 5615 5621 5626 5631 5636 5640 5643 5645 5647 5649 5649 5649 5648 5646 5644 5641 5637 5633 5628 5622 5615 5609 5601 5594 5586 5578
5476 5483 5490 5498 5506 5514 5521 5529 5537 5545 5554 5562 5571 5580 5587 5595 5602 5608 5614 5619 5624 5629 5633 5635 5638 5640 5641 5641 5641 5640 5638 5636 5633 5629 5625 5620 5613 5607 5600 5593 5585 5577 5569
5471 5478 5485 5493 5501 5509 5516 5524 5532 5541 5549 5558 5566 5573 5581 5589 5595 5601 5607 5612 5617 5621 5624 5628 5630 5632 5632 5633 5633 5632 5630 5628 5625 5621 5616 5611 5605 5599 5591 5584 5577 5569 5561
5466 5473 5481 5488 5495 5504 5512 5520 5527 5536 5544 5552 5560 5567 5575 5582 5588 5594 5600 5605 5610 5614 5617 5621 5623 5624 5625 5625 5625 5624 5622 5620 5617 5613 5608 5603 5597 5591 5584 5576 5568 5561 5552